Simultaneous Nadir Overpasses (SNOs) Predictions

Prediction of SNOs between GOES-14 and NOAA-20 Satellite Orbit:

Table of predicted SNOs for the next 14.0 days since TLE Epoch: 4/20/2024
Index Date Time (GOES-14) GOES-14 Lat,Lon NOAA-20 Lat,Lon Distance(km) Time Diff (sec)
1 04/20/2024 08:53:17 0.18,-108.58 0.85,-111.53 336.47 80
2 04/21/2024 08:31:58 0.18,-108.58 -0.17,-107.02 177.77 80
3 04/22/2024 20:54:02 -0.17,-108.60 -1.01,-112.37 429.20 80
4 04/23/2024 20:38:02 -0.18,-108.60 0.01,-107.86 85.46 80
5 04/26/2024 08:41:17 0.17,-108.60 0.19,-108.65 5.49 80
6 04/28/2024 20:42:01 -0.17,-108.60 -0.37,-109.48 99.82 80
7 04/29/2024 20:26:01 -0.18,-108.60 0.62,-104.96 414.37 80
8 05/01/2024 08:47:56 0.17,-108.60 0.54,-110.27 190.76 80
9 05/02/2024 08:26:36 0.18,-108.59 -0.45,-105.75 323.09 80
10 05/03/2024 20:48:39 -0.17,-108.59 -0.74,-111.09 285.83 80
